SCP
2 2 2 1 1 1 1 1 1 1 1 1 1 1 1 1 1 1 1 1 1 1 0 0 0 0 0 0 0 0 0 0 0 0 0 0 0 0 0 0 0 0 0
2 2 1 1 1 1 0 1 1 1 1 1 1 1 1 1 1 1 1 1 1 1 0 0 0 0 0 0 0 0 0 0 0 0 0 0 0 0 0 0 0 0 0
2 2 1 1 1 1 0 0 0 1 1 1 1 1 1 1 1 1 1 1 1 1 1 0 0 0 0 0 0 0 0 0 0 0 0 0 0 0 0 0 0 0 0
2 2 1 1 1 1 0 0 0 0 0 1 1 1 1 1 1 1 1 1 1 1 1 1 0 0 0 0 0 0 0 0 0 0 0 0 0 0 0 0 0 0 0
1 1 1 1 1 1 0 0 0 0 0 0 1 1 1 1 1 1 1 1 1 1 0 0 0 0 0 0 0 0 0 0 0 0 0 0 0 0 0 0 0 0 0
1 1 1 1 1 0 0 0 0 0 0 0 0 1 1 1 0 0 0 1 1 1 0 0 0 0 0 0 0 0 0 0 0 0 0 0 0 0 0 0 0 0 0
1 1 1 0 0 0 0 0 0 0 0 0 0 0 0 0 0 0 0 0 0 1 0 0 0 0 0 0 0 0 0 0 0 0 0 0 0 0 0 0 0 0 0
0 0 0 0 0 0 0 0 0 0 0 0 0 0 0 0 0 0 0 0 0 0 0 0 0 0 0 0 0 0 0 0 0 0 0 0 0 0 0 0 0 0 0
0 0 0 0 0 0 0 0 0 0 0 0 0 0 0 0 0 0 0 0 0 0 0 0 0 0 0 0 0 0 0 0 0 0 0 0 0 0 0 0 0 0 0
0 0 0 0 0 0 0 0 0 0 0 0 0 0 0 0 0 0 0 0 0 0 0 0 0 0 0 0 0 0 0 0 0 0 0 0 0 0 0 0 0 0 0
0 0 0 0 0 0 0 0 0 0 0 0 0 0 0 0 0 0 0 0 0 0 0 0 0 0 0 0 0 0 0 0 0 0 0 0 0 0 0 0 0 0 0
0 0 0 0 0 0 0 0 0 0 0 0 0 0 0 0 0 0 0 0 0 0 0 0 0 0 0 0 0 0 0 0 0 0 0 0 0 0 0 0 0 0 0
0 0 0 0 0 0 0 0 0 0 0 0 0 0 0 0 0 0 0 0 0 0 0 0 0 0 0 0 0 0 0 0 0 0 0 0 0 0 0 0 0 0 0
0 0 0 0 0 0 0 0 0 0 0 0 0 0 0 0 0 0 0 0 0 0 0 0 0 0 0 0 0 0 0 0 0 0 0 0 0 0 0 0 0 0 0
0 0 0 0 0 0 0 0 0 0 0 0 0 0 0 0 0 0 0 0 0 0 0 0 0 0 0 0 0 0 0 0 0 0 0 0 0 0 0 0 0 0 0
0 0 0 0 0 0 0 0 0 0 0 0 0 0 0 0 0 0 0 0 0 0 0 0 0 0 0 0 0 0 0 0 0 0 0 0 0 0 0 0 0 0 0
0 0 0 0 0 0 0 0 0 0 0 0 0 0 0 0 0 0 0 0 0 0 0 0 0 0 0 0 0 0 0 0 0 0 0 0 0 0 0 0 0 0 0
0 0 0 0 0 0 0 0 0 0 0 0 0 0 0 0 0 0 0 0 0 0 0 0 0 0 0 0 0 0 0 0 0 0 0 0 0 0 0 0 0 0 0
0 0 0 0 0 0 0 0 0 0 0 0 0 0 0 0 0 0 0 0 0 0 0 0 0 0 0 0 0 0 0 0 0 0 0 0 0 0 0 0 0 0 0
0 0 0 0 0 0 0 0 0 0 0 0 0 0 0 0 0 0 0 0 0 0 0 0 0 0 0 0 0 0 0 0 0 0 0 0 0 0 0 0 0 0 0
0 0 0 0 0 0 0 0 0 0 0 0 0 0 0 0 0 0 0 0 0 0 0 0 0 0 0 0 0 0 0 0 0 0 0 0 0 0 0 0 0 0 0
0 0 0 0 0 0 0 0 0 0 0 0 0 0 0 0 0 0 0 0 0 0 0 0 0 0 0 0 0 0 0 0 0 0 0 0 0 0 0 0 0 0 0
0 0 0 0 0 0 0 0 0 0 0 0 0 0 0 0 0 0 0 0 0 0 0 0 0 0 0 0 0 0 0 0 0 0 0 0 0 0 0 0 0 0 0
0 0 0 0 0 0 0 0 0 0 0 0 0 0 0 0 0 0 0 0 0 0 0 0 0 0 0 0 0 0 0 0 0 0 0 0 0 0 0 0 0 0 0
0 0 0 0 0 0 0 0 0 0 0 0 0 0 0 0 0 0 0 0 0 0 0 0 0 0 0 0 0 0 0 0 0 0 0 0 0 0 0 0 0 0 0
0 0 0 0 0 0 0 0 0 0 0 0 0 0 0 0 0 0 0 0 0 0 0 0 0 0 0 0 0 0 0 0 0 0 0 0 0 0 0 0 0 0 0
Wind_Speed
2 2 1 1 1 1 2 2 2 2 2 3 3 3 3 3 2 2 2 2 2 3 3 3 4 4 2 3 3 3 3 3 4 4 3 3 3 4 4 4 4 4 5
2 2 1 1 1 1 2 2 2 2 3 3 3 2 3 3 2 2 3 3 3 3 4 3 4 3 3 3 2 3 3 3 3 4 3 2 3 4 4 4 4 4 4
2 2 1 1 1 1 2 2 2 2 3 3 2 2 3 2 2 2 2 3 3 4 4 3 4 3 3 3 3 3 3 3 2 3 4 2 3 3 2 3 4 3 4
1 1 1 2 2 2 2 2 2 2 2 2 2 3 3 2 2 3 2 3 3 3 3 3 4 4 4 4 3 3 3 3 2 2 3 3 3 3 1 2 3 3 3
1 1 2 2 2 2 2 2 2 2 2 2 2 3 2 2 2 2 3 3 3 4 3 3 3 3 4 4 3 3 3 2 2 2 3 2 3 2 2 2 3 3 3
1 2 2 1 2 2 2 2 2 2 2 2 3 2 2 2 3 4 3 3 3 3 4 4 4 3 5 6 7 6 4 4 3 3 3 4 5 4 3 2 2 2 3
1 2 2 2 2 2 3 2 2 2 2 3 3 2 2 3 4 5 4 3 3 3 3 4 4 4 5 4 6 6 6 6 6 4 4 6 5 4 3 3 3 3 4
1 2 2 2 2 2 2 2 2 2 2 2 2 2 2 3 4 5 5 3 3 3 3 3 3 5 5 4 4 4 5 5 5 4 5 7 6 5 5 5 4 4 4
1 2 2 2 2 2 2 2 2 2 2 2 2 2 2 4 5 4 3 2 2 4 3 3 3 4 6 5 3 4 5 5 5 5 6 7 8 8 6 2 2 2 3
2 2 2 1 1 2 2 2 2 1 2 2 2 2 2 3 5 4 3 1 2 3 4 4 4 5 6 5 3 3 4 5 5 5 5 5 5 6 7 5 4 3 3
2 1 1 1 1 1 1 1 1 1 1 2 3 3 2 3 4 5 4 0 1 3 3 4 4 7 7 6 4 3 5 5 4 3 4 4 4 4 4 4 5 5 4
0 1 1 1 1 1 1 2 1 1 1 2 2 3 2 2 3 4 5 3 2 1 3 3 4 8 8 7 4 4 5 4 2 2 3 4 4 4 4 4 5 6 7
1 1 1 2 2 1 1 1 2 1 1 1 1 1 2 3 3 5 6 6 5 2 2 5 7 7 6 5 6 6 4 2 2 2 3 4 4 4 4 4 4 4 4
1 1 1 2 3 3 2 1 1 1 1 1 1 1 2 2 3 4 4 4 5 4 4 5 6 6 6 6 5 5 3 2 2 2 3 4 4 3 3 3 3 3 2
1 1 1 1 1 2 2 2 1 1 1 1 0 0 0 2 3 3 2 3 3 3 3 3 4 4 5 4 4 4 4 4 4 4 3 4 4 4 4 3 2 2 2
1 1 1 1 1 1 1 3 4 2 2 1 1 1 0 1 3 4 5 6 6 5 4 3 4 4 4 4 4 4 4 4 4 4 4 4 4 5 4 4 3 2 3
0 1 1 0 0 1 1 1 1 4 6 4 3 2 1 2 4 5 6 6 7 5 4 3 3 3 4 4 4 3 4 4 3 3 4 4 5 4 4 4 4 3 3
0 0 0 0 0 1 0 0 1 1 2 3 4 4 4 4 5 6 6 5 5 5 3 2 3 3 3 4 4 4 4 4 4 4 5 5 5 4 4 5 4 4 4
1 1 1 1 1 1 1 1 2 2 1 1 2 4 5 4 5 7 6 3 3 3 3 3 3 3 3 3 3 3 4 4 5 4 4 5 5 4 4 5 5 6 5
1 1 1 1 1 1 1 2 1 1 1 2 2 2 2 3 4 4 4 3 3 3 3 3 3 3 3 3 4 4 4 4 5 5 5 5 5 5 5 6 6 5 4
0 0 1 1 1 1 1 1 1 1 1 1 1 2 2 2 2 2 3 3 2 3 3 3 3 3 4 4 4 5 5 5 5 5 6 6 6 5 5 4 5 4 4
1 0 1 1 1 1 1 1 1 1 1 1 1 2 4 3 2 2 2 3 2 2 2 2 3 3 3 4 4 5 5 5 5 6 6 6 6 5 5 4 5 4 4
1 1 1 1 1 2 2 1 1 2 2 2 2 2 2 3 3 3 3 3 3 3 3 3 3 4 4 4 4 3 4 5 6 6 6 6 5 5 4 5 6 6 5
1 1 1 1 2 1 1 1 2 2 2 2 3 3 3 3 3 3 3 3 3 3 3 3 3 5 7 5 4 4 4 5 6 5 6 5 5 5 4 4 5 6 5
1 1 1 1 2 2 2 2 2 3 3 3 3 3 3 3 3 3 3 3 3 3 4 4 4 4 6 7 7 7 8 9 7 6 5 4 5 5 5 5 4 5 5
1 2 1 1 1 2 2 3 3 3 3 3 3 3 2 2 2 2 2 3 3 3 4 4 5 6 7 6 8 9 9 9 9 8 5 4 4 5 5 4 6 5 5
Wind_Direction
175 170 171 211 212 213 226 241 235 240 250 256 264 271 272 269 263 261 263 269 269 272 259 249 255 255 251 253 241 231 221 203 239 268 260 266 266 272 282 271 260 250 251
160 146 166 207 211 242 268 263 245 248 256 260 264 271 269 269 269 264 271 279 277 274 271 262 262 259 254 256 249 245 242 224 216 257 274 268 258 263 268 270 269 261 249
145 145 174 218 237 260 269 270 263 260 272 285 280 279 277 275 275 269 260 271 274 267 264 256 258 255 261 263 252 251 253 253 218 226 258 255 255 265 279 280 279 275 261
146 153 200 236 249 258 267 272 271 269 274 283 277 274 266 265 276 279 280 279 282 282 271 259 260 247 246 256 257 254 255 260 247 241 256 264 259 265 256 272 292 289 277
140 185 241 250 257 265 275 283 284 281 279 268 279 283 280 273 273 280 281 285 286 293 288 277 271 265 264 261 261 254 250 247 254 252 258 269 270 269 260 252 270 287 285
156 221 248 251 258 268 275 277 283 285 287 287 285 267 275 286 297 290 281 283 284 288 294 291 280 278 286 282 274 260 235 231 242 243 247 253 260 252 255 251 259 283 284
200 243 253 246 250 260 271 280 285 280 283 295 285 270 272 283 291 294 290 280 277 277 279 286 296 302 301 292 289 287 270 257 234 221 238 248 249 243 238 252 248 242 247
217 245 254 247 253 268 280 279 274 270 272 280 284 286 287 300 297 296 305 302 283 282 277 275 285 299 303 299 292 294 285 277 260 240 232 244 245 240 227 234 242 256 263
246 253 258 248 250 275 285 282 274 270 285 284 284 295 295 301 304 301 312 319 309 304 299 296 296 301 308 312 300 293 297 296 292 290 272 265 260 254 243 238 249 249 273
251 253 257 238 230 263 275 281 273 261 274 302 315 299 283 294 312 314 320 314 310 308 312 313 307 308 309 310 287 279 288 290 307 322 319 307 286 272 256 225 221 230 244
262 271 318 316 276 260 284 294 294 306 334 335 324 319 318 313 324 329 337 323 284 304 312 314 311 320 320 321 306 259 265 282 300 307 308 306 300 290 275 246 222 218 228
4 11 319 300 295 333 9 339 346 11 349 326 334 334 331 334 351 349 359 357 343 318 305 307 312 324 330 331 328 319 319 322 316 316 312 305 298 293 283 271 252 238 232
50 9 333 327 334 353 26 348 344 345 335 320 338 329 324 339 355 4 5 1 358 342 308 317 326 336 342 343 346 350 354 355 337 323 306 293 286 286 291 293 288 275 265
58 5 359 2 351 357 5 2 345 328 338 336 345 340 340 353 357 356 355 356 357 356 346 338 346 2 9 358 355 2 3 354 338 311 305 303 308 312 311 309 302 305 305
49 2 356 359 4 5 356 349 327 262 196 173 259 252 40 345 323 344 10 358 347 346 350 2 11 7 7 1 358 358 357 0 356 341 335 335 335 334 321 317 314 318 309
33 358 343 350 2 19 17 9 16 19 27 79 175 179 237 269 332 3 14 15 12 17 40 25 12 8 2 355 350 347 349 350 347 346 345 340 336 334 330 328 326 321 309
157 295 305 327 329 338 13 75 17 9 21 28 27 27 31 4 11 12 14 22 22 35 48 24 8 357 351 347 345 344 342 335 337 343 343 336 333 332 330 329 327 322 315
51 298 301 324 339 358 12 56 95 88 24 360 4 21 24 22 20 20 23 34 26 30 29 11 355 347 347 349 348 346 343 345 349 346 341 335 332 333 334 332 329 324 317
59 23 31 44 49 41 48 59 68 77 72 15 5 10 19 30 30 26 38 49 30 14 8 3 356 353 353 350 348 346 347 345 342 338 336 333 331 332 331 329 327 327 325
67 57 64 66 46 48 55 67 74 75 60 37 27 7 16 41 36 22 29 31 30 14 6 6 2 1 357 352 349 349 350 347 345 342 335 333 332 333 331 330 329 326 325
97 32 33 43 63 82 71 82 93 89 82 74 27 27 70 72 48 29 24 26 25 17 6 4 4 2 358 354 351 348 350 346 343 339 335 332 332 331 328 326 327 326 326
124 89 60 64 75 78 81 81 83 87 89 93 46 40 65 62 44 34 27 23 19 15 15 19 16 8 1 358 353 350 349 344 338 335 331 329 329 328 328 329 330 332 334
118 88 59 41 65 83 71 69 80 83 76 85 74 63 58 55 53 47 38 31 29 20 19 26 25 12 5 2 358 353 343 329 320 316 320 324 328 329 329 331 335 338 340
112 108 99 75 76 80 93 93 93 91 89 86 75 70 69 69 59 47 37 31 33 26 22 23 18 12 8 6 1 354 342 330 322 319 320 322 327 329 333 335 335 337 340
90 104 115 106 92 96 102 92 88 88 86 85 84 80 77 71 59 46 33 31 32 28 23 23 14 13 11 7 3 353 344 343 344 339 334 335 336 336 337 338 340 342 347
92 112 114 104 101 122 121 107 102 101 93 92 95 95 89 78 64 49 38 34 29 22 19 20 15 15 11 6 358 351 348 347 346 345 345 347 347 349 349 350 349 351 352